THY1TS LTCG-LTCT

Flight info

Callsign THY1TS
Flight time 0h 37m
Altitude 27000
Route BAVTI W71 HOCAM L851 ERZ B374 YAVUZ
Aircraft B738/M-SDE2E3FGHIRWXY/LB1

Departure

Time 2026-05-04 22:08
Airport Trabzon International Airport (LTCG)

Arrival

Time 2026-05-04 22:45
Airport Iğdır Airport (LTCT)
Time Latitude Longitude Altitude Speed Heading
2026-05-04 21:55 40.99539 39.78182 115 ft 0 kts 202°
2026-05-04 22:01 40.99553 39.78189 110 ft 2 kts 202°
2026-05-04 22:02 40.99568 39.78198 113 ft 2 kts 205°
2026-05-04 22:02 40.99582 39.78208 110 ft 2 kts 214°
2026-05-04 22:02 40.99593 39.78224 111 ft 2 kts 277°
2026-05-04 22:02 40.99591 39.78236 110 ft 1 kts 292°
2026-05-04 22:03 40.99590 39.78236 110 ft 0 kts 292°
2026-05-04 22:05 40.99591 39.78233 114 ft 3 kts 291°
2026-05-04 22:05 40.99613 39.78161 114 ft 11 kts 291°
2026-05-04 22:05 40.99640 39.78071 114 ft 10 kts 291°
2026-05-04 22:05 40.99668 39.77984 112 ft 10 kts 294°
2026-05-04 22:06 40.99694 39.77900 112 ft 10 kts 292°
2026-05-04 22:06 40.99726 39.77798 111 ft 18 kts 292°
2026-05-04 22:06 40.99783 39.77611 107 ft 24 kts 292°
2026-05-04 22:06 40.99858 39.77489 109 ft 14 kts 346°
2026-05-04 22:07 40.99941 39.77539 110 ft 14 kts 59°
2026-05-04 22:07 40.99917 39.77675 106 ft 31 kts 114°
2026-05-04 22:07 40.99726 39.78267 107 ft 107 kts 112°
2026-05-04 22:07 40.99361 39.79441 156 ft 162 kts 111°
2026-05-04 22:08 40.98939 39.80820 946 ft 154 kts 111°
2026-05-04 22:08 40.98827 39.82235 1700 ft 159 kts 73°
2026-05-04 22:08 40.98990 39.83757 2226 ft 183 kts 99°
2026-05-04 22:08 40.98739 39.85557 2553 ft 213 kts 99°
2026-05-04 22:09 40.98504 39.87605 2885 ft 233 kts 98°
2026-05-04 22:09 40.98260 39.89821 3254 ft 253 kts 98°
2026-05-04 22:09 40.97998 39.92175 3997 ft 260 kts 98°
2026-05-04 22:09 40.97732 39.94535 5028 ft 259 kts 98°
2026-05-04 22:10 40.97461 39.96916 5954 ft 263 kts 99°
2026-05-04 22:10 40.97184 39.99331 6795 ft 268 kts 99°
2026-05-04 22:10 40.96900 40.01792 7633 ft 272 kts 99°
2026-05-04 22:10 40.96615 40.04259 8461 ft 277 kts 100°
2026-05-04 22:11 40.96320 40.06797 9299 ft 281 kts 100°
2026-05-04 22:11 40.96019 40.09381 10113 ft 286 kts 100°
2026-05-04 22:11 40.95705 40.12056 10522 ft 306 kts 101°
2026-05-04 22:11 40.95041 40.14835 10690 ft 328 kts 122°
2026-05-04 22:12 40.93451 40.17064 10994 ft 343 kts 149°
2026-05-04 22:12 40.91210 40.18178 11668 ft 347 kts 167°
2026-05-04 22:12 40.88840 40.18877 12492 ft 349 kts 168°
2026-05-04 22:12 40.86454 40.19538 13325 ft 352 kts 169°
2026-05-04 22:13 40.84043 40.20214 14102 ft 355 kts 169°
2026-05-04 22:13 40.81618 40.20913 14866 ft 358 kts 168°
2026-05-04 22:13 40.79167 40.21637 15627 ft 362 kts 168°
2026-05-04 22:13 40.76726 40.22367 16359 ft 366 kts 168°
2026-05-04 22:14 40.74232 40.23116 17100 ft 369 kts 168°
2026-05-04 22:14 40.71704 40.23877 17836 ft 374 kts 168°
2026-05-04 22:14 40.69154 40.24690 18509 ft 379 kts 164°
2026-05-04 22:14 40.66723 40.26066 19176 ft 383 kts 153°
2026-05-04 22:15 40.64477 40.28019 19843 ft 388 kts 143°
2026-05-04 22:15 40.63160 40.29617 20294 ft 392 kts 137°
2026-05-04 22:15 40.61271 40.32216 20936 ft 395 kts 136°
2026-05-04 22:15 40.59376 40.34845 21578 ft 398 kts 136°
2026-05-04 22:16 40.57461 40.37495 22203 ft 401 kts 136°
2026-05-04 22:16 40.55519 40.40167 22766 ft 405 kts 136°
2026-05-04 22:16 40.53559 40.42851 23345 ft 408 kts 137°
2026-05-04 22:16 40.51610 40.45509 23853 ft 410 kts 137°
2026-05-04 22:17 40.49594 40.48250 24326 ft 414 kts 137°
2026-05-04 22:17 40.47586 40.50976 24765 ft 417 kts 137°
2026-05-04 22:17 40.45590 40.53681 25199 ft 419 kts 137°
2026-05-04 22:17 40.43555 40.56438 25652 ft 422 kts 137°
2026-05-04 22:18 40.41507 40.59209 26045 ft 425 kts 137°
2026-05-04 22:18 40.39429 40.62016 26338 ft 431 kts 137°
2026-05-04 22:18 40.37327 40.64856 26667 ft 435 kts 137°
2026-05-04 22:18 40.35225 40.67695 26934 ft 435 kts 137°
2026-05-04 22:19 40.33119 40.70551 26934 ft 435 kts 137°
2026-05-04 22:19 40.31012 40.73391 26938 ft 434 kts 137°
2026-05-04 22:19 40.28903 40.76220 26934 ft 434 kts 138°
2026-05-04 22:19 40.26790 40.79055 26938 ft 434 kts 138°
2026-05-04 22:20 40.24676 40.81893 26947 ft 435 kts 138°
2026-05-04 22:20 40.22567 40.84726 26944 ft 436 kts 138°
2026-05-04 22:20 40.20450 40.87574 26941 ft 436 kts 138°
2026-05-04 22:20 40.18336 40.90418 26961 ft 436 kts 138°
2026-05-04 22:21 40.16215 40.93269 26944 ft 436 kts 138°
2026-05-04 22:21 40.14125 40.96076 26944 ft 436 kts 138°
2026-05-04 22:21 40.12007 40.98917 26966 ft 435 kts 138°
2026-05-04 22:21 40.09892 41.01750 26945 ft 435 kts 138°
2026-05-04 22:22 40.07781 41.04576 26959 ft 434 kts 138°
2026-05-04 22:22 40.05671 41.07399 26965 ft 434 kts 138°
2026-05-04 22:22 40.03557 41.10224 26949 ft 434 kts 138°
2026-05-04 22:22 40.01449 41.13039 26955 ft 434 kts 138°
2026-05-04 22:23 39.99337 41.15855 26961 ft 434 kts 138°
2026-05-04 22:23 39.97462 41.18971 26954 ft 442 kts 123°
2026-05-04 22:23 39.96336 41.22730 26966 ft 451 kts 108°
2026-05-04 22:23 39.96023 41.26831 26966 ft 460 kts 91°
2026-05-04 22:24 39.96294 41.30995 26969 ft 462 kts 88°
2026-05-04 22:24 39.96643 41.35107 26962 ft 463 kts 87°
2026-05-04 22:24 39.97009 41.39285 26957 ft 463 kts 88°
2026-05-04 22:24 39.97358 41.43459 26958 ft 464 kts 88°
2026-05-04 22:25 39.97688 41.47650 26957 ft 464 kts 88°
2026-05-04 22:25 39.98000 41.51828 26961 ft 463 kts 88°
2026-05-04 22:25 39.98303 41.56023 26953 ft 463 kts 89°
2026-05-04 22:25 39.98600 41.60200 26961 ft 463 kts 89°
2026-05-04 22:26 39.98898 41.64391 26964 ft 463 kts 89°
2026-05-04 22:26 39.99195 41.68567 26974 ft 463 kts 89°
2026-05-04 22:26 39.99493 41.72763 26958 ft 464 kts 89°
2026-05-04 22:26 39.99791 41.76953 26960 ft 464 kts 89°
2026-05-04 22:27 40.00093 41.81142 26967 ft 464 kts 89°
2026-05-04 22:27 40.00396 41.85322 26965 ft 464 kts 89°
2026-05-04 22:27 40.00700 41.89512 26964 ft 464 kts 89°
2026-05-04 22:27 40.01002 41.93704 26965 ft 464 kts 89°
2026-05-04 22:28 40.01298 41.97845 26965 ft 464 kts 89°
2026-05-04 22:28 40.01596 42.02039 26963 ft 464 kts 89°
2026-05-04 22:28 40.01892 42.06226 26959 ft 464 kts 89°
2026-05-04 22:28 40.02186 42.10416 26965 ft 464 kts 89°
2026-05-04 22:29 40.02480 42.14617 26966 ft 464 kts 89°
2026-05-04 22:29 40.02771 42.18811 26971 ft 464 kts 89°
2026-05-04 22:29 40.03063 42.23033 26963 ft 464 kts 89°
2026-05-04 22:29 40.03351 42.27219 26963 ft 463 kts 89°
2026-05-04 22:30 40.03637 42.31404 26971 ft 463 kts 89°
2026-05-04 22:30 40.03923 42.35593 26927 ft 462 kts 89°
2026-05-04 22:30 40.04202 42.39718 26429 ft 460 kts 89°
2026-05-04 22:30 40.04445 42.43837 25862 ft 451 kts 92°
2026-05-04 22:31 40.04391 42.47886 25280 ft 442 kts 97°
2026-05-04 22:31 40.04209 42.51875 24700 ft 436 kts 98°
2026-05-04 22:31 40.03995 42.55798 24114 ft 431 kts 99°
2026-05-04 22:31 40.03782 42.59681 23564 ft 426 kts 99°
2026-05-04 22:32 40.03579 42.63532 22900 ft 423 kts 98°
2026-05-04 22:32 40.03391 42.67336 22306 ft 418 kts 98°
2026-05-04 22:32 40.03211 42.71109 21729 ft 414 kts 98°
2026-05-04 22:32 40.03040 42.74805 21146 ft 410 kts 98°
2026-05-04 22:33 40.02870 42.78500 20597 ft 406 kts 98°
2026-05-04 22:33 40.02699 42.82170 20036 ft 403 kts 98°
2026-05-04 22:33 40.02530 42.85799 19489 ft 400 kts 98°
2026-05-04 22:33 40.02358 42.89416 18912 ft 396 kts 98°
2026-05-04 22:34 40.02190 42.92974 18414 ft 392 kts 98°
2026-05-04 22:34 40.02018 42.96528 17765 ft 391 kts 98°
2026-05-04 22:34 40.01880 43.00062 17077 ft 392 kts 94°
2026-05-04 22:34 40.02211 43.03640 16217 ft 403 kts 81°
2026-05-04 22:35 40.03010 43.07172 15479 ft 406 kts 76°
2026-05-04 22:35 40.03870 43.10711 14670 ft 409 kts 76°
2026-05-04 22:35 40.04716 43.14255 14006 ft 409 kts 76°
2026-05-04 22:35 40.05539 43.17754 13398 ft 406 kts 76°
2026-05-04 22:36 40.06347 43.21218 12807 ft 392 kts 76°
2026-05-04 22:36 40.07121 43.24547 12609 ft 365 kts 77°
2026-05-04 22:36 40.07826 43.27588 12455 ft 343 kts 77°
2026-05-04 22:36 40.08496 43.30492 12324 ft 325 kts 77°
2026-05-04 22:37 40.09135 43.33274 12177 ft 314 kts 76°
2026-05-04 22:37 40.09764 43.36001 12131 ft 317 kts 77°
2026-05-04 22:37 40.10431 43.38773 11714 ft 324 kts 74°
2026-05-04 22:37 40.11197 43.41549 11260 ft 325 kts 72°
2026-05-04 22:38 40.11978 43.44326 10818 ft 326 kts 72°
2026-05-04 22:38 40.12688 43.47144 10334 ft 326 kts 83°
2026-05-04 22:38 40.12543 43.50020 9915 ft 314 kts 115°
2026-05-04 22:38 40.11531 43.52434 9677 ft 301 kts 126°
2026-05-04 22:39 40.10470 43.54788 9218 ft 303 kts 122°
2026-05-04 22:39 40.09495 43.57263 8736 ft 304 kts 119°
2026-05-04 22:39 40.08604 43.59688 8279 ft 283 kts 118°
2026-05-04 22:39 40.07793 43.61897 7868 ft 260 kts 116°
2026-05-04 22:40 40.07032 43.63948 7494 ft 244 kts 118°
2026-05-04 22:40 40.06299 43.65912 7123 ft 237 kts 118°
2026-05-04 22:40 40.05576 43.67854 6746 ft 238 kts 117°
2026-05-04 22:40 40.04858 43.69786 6397 ft 238 kts 117°
2026-05-04 22:41 40.04163 43.71661 6029 ft 215 kts 117°
2026-05-04 22:41 40.03555 43.73302 5689 ft 190 kts 117°
2026-05-04 22:41 40.03015 43.74770 5422 ft 168 kts 117°
2026-05-04 22:41 40.02524 43.76084 5161 ft 156 kts 117°
2026-05-04 22:42 40.02058 43.77338 4921 ft 155 kts 117°
2026-05-04 22:42 40.01738 43.78199 4779 ft 157 kts 118°
2026-05-04 22:42 40.01260 43.79489 4518 ft 162 kts 118°
2026-05-04 22:42 40.00767 43.80826 4261 ft 164 kts 120°
2026-05-04 22:43 40.00268 43.82168 4013 ft 166 kts 120°
2026-05-04 22:43 39.99774 43.83535 3731 ft 166 kts 113°
2026-05-04 22:43 39.99277 43.84885 3459 ft 165 kts 117°
2026-05-04 22:43 39.98655 43.86110 3210 ft 160 kts 129°
2026-05-04 22:44 39.97947 43.87217 3100 ft 152 kts 128°
2026-05-04 22:44 39.97414 43.88073 3092 ft 92 kts 129°
2026-05-04 22:44 39.97109 43.88560 3083 ft 62 kts 129°
2026-05-04 22:44 39.96840 43.88981 3079 ft 59 kts 130°
2026-05-04 22:45 39.96677 43.89314 3069 ft 24 kts 106°
2026-05-04 22:45 39.96620 43.89321 3065 ft 4 kts 305°
2026-05-04 22:45 39.96655 43.89271 3069 ft 14 kts 312°
2026-05-04 22:46 39.96721 43.89172 3069 ft 15 kts 309°
2026-05-04 22:46 39.96822 43.89013 3082 ft 27 kts 310°
2026-05-04 22:46 39.96939 43.88828 3075 ft 26 kts 309°
2026-05-04 22:46 39.97047 43.88655 3082 ft 24 kts 309°
2026-05-04 22:47 39.97145 43.88490 3087 ft 23 kts 307°
2026-05-04 22:47 39.97243 43.88336 3084 ft 22 kts 311°
2026-05-04 22:47 39.97342 43.88186 3086 ft 21 kts 310°
2026-05-04 22:47 39.97453 43.88008 3087 ft 30 kts 309°
2026-05-04 22:48 39.97583 43.87800 3094 ft 29 kts 308°
2026-05-04 22:48 39.97703 43.87604 3093 ft 27 kts 308°
2026-05-04 22:48 39.97838 43.87607 3102 ft 22 kts 41°
2026-05-04 22:48 39.97952 43.87730 3096 ft 21 kts 39°
2026-05-04 22:49 39.97983 43.87763 3098 ft 2 kts 39°
2026-05-04 22:49 39.97994 43.87774 3096 ft 2 kts 39°
2026-05-04 22:49 39.97998 43.87778 3096 ft 0 kts 39°